This is the latest recevied weather packets stored in our database for station/object W5COG. If no packets are shown the sender has not sent any weather packets the latest 10 day(s).
| Time | Temp. | Humidity | Pressure | Rain* | Wind** | Luminosity | Snow |
|---|---|---|---|---|---|---|---|
| 1778262028 | 25° C | - | - | 0 mm | - | 100 W/m² | - |
| 1778261728 | 24.44° C | 43% | 1009.9 hPa | 0 mm | - | 739 W/m² | - |
| 1778261428 | 24.44° C | 43% | 1010 hPa | 0 mm | - | 939 W/m² | - |
| 1778261128 | 24.44° C | 43% | 1010.1 hPa | 0 mm | - | 899 W/m² | - |
| 1778260229 | 23.89° C | 45% | 1010.5 hPa | 0 mm | - | 867 W/m² | - |
| 1778259928 | 23.89° C | 44% | 1010.6 hPa | 0 mm | - | 856 W/m² | - |
| 1778259628 | 23.89° C | 44% | 1010.8 hPa | 0 mm | - | 847 W/m² | - |
| 1778259328 | 23.89° C | 44% | 1010.9 hPa | 0 mm | - | 838 W/m² | - |
| 1778259029 | 23.89° C | 46% | 1011 hPa | 0 mm | - | 832 W/m² | - |
| 1778258728 | 23.33° C | 46% | 1011.1 hPa | 0 mm | - | 823 W/m² | - |
| 1778258428 | 23.33° C | 47% | 1011.2 hPa | 0 mm | - | 815 W/m² | - |
| 1778258128 | 23.33° C | 47% | 1011.3 hPa | 0 mm | - | 809 W/m² | - |
| 1778257828 | 22.78° C | 47% | 1011.3 hPa | 0 mm | - | 799 W/m² | - |
| 1778257528 | 22.78° C | 47% | 1011.4 hPa | 0 mm | - | 791 W/m² | - |
| 1778256628 | 22.22° C | 48% | 1011.6 hPa | 0 mm | - | 765 W/m² | - |
| 1778256328 | 22.22° C | 49% | 1011.5 hPa | 0 mm | - | 756 W/m² | - |
| 1778256028 | 22.22° C | 49% | 1011.5 hPa | 0 mm | - | 746 W/m² | - |
| 1778255728 | 21.67° C | 49% | 1011.5 hPa | 0 mm | - | 736 W/m² | - |
| 1778255428 | 21.11° C | 51% | 1011.6 hPa | 0 mm | - | 725 W/m² | - |
| 1778255128 | 21.11° C | 51% | 1011.7 hPa | 0 mm | - | 714 W/m² | - |
| 1778254828 | 21.11° C | 52% | 1011.8 hPa | 0 mm | - | 702 W/m² | - |
| 1778254528 | 21.11° C | 52% | 1011.9 hPa | 0 mm | - | 689 W/m² | - |
| 1778254229 | 20.56° C | 53% | 1012.1 hPa | 0 mm | - | 678 W/m² | - |
| 1778253928 | 20.56° C | 54% | 1012.1 hPa | 0 mm | - | 665 W/m² | - |
| 1778253028 | 20° C | 55% | 1012.2 hPa | 0 mm | - | 628 W/m² | - |
* Rain latest hour (hover to see other rain measurements)
** Current wind speed in m/s (hover to see current wind gust speed)